This is the latest recevied weather packets stored in our database for station/object IW2MUC-12. If no packets are shown the sender has not sent any weather packets the latest 10 day(s).
| Time | Temp. | Humidity | Pressure | Rain* | Wind** | Luminosity | Snow |
|---|---|---|---|---|---|---|---|
| 1777656752 | 22.78° C | 41% | 997 hPa | - | - | - | - |
| 1777656148 | 23.33° C | 40% | 997 hPa | - | - | - | - |
| 1777654940 | 23.33° C | 36% | 997 hPa | - | - | - | - |
| 1777654336 | 25° C | 35% | 995 hPa | - | - | - | - |
| 1777653723 | 25.56° C | 37% | 996 hPa | - | - | - | - |
| 1777653119 | 27.22° C | 38% | 997 hPa | - | - | - | - |
| 1777652515 | 28.89° C | 37% | 997 hPa | - | - | - | - |
| 1777651911 | 30° C | 37% | 997 hPa | - | - | - | - |
| 1777651307 | 31.67° C | 35% | 997 hPa | - | - | - | - |
| 1777650703 | 31.67° C | 35% | 998 hPa | - | - | - | - |
| 1777650099 | 32.22° C | 35% | 998 hPa | - | - | - | - |
| 1777649495 | 32.22° C | 35% | 998 hPa | - | - | - | - |
| 1777648891 | 32.22° C | 36% | 998 hPa | - | - | - | - |
| 1777648287 | 31.67° C | 36% | 998 hPa | - | - | - | - |
| 1777647683 | 31.67° C | 37% | 998 hPa | - | - | - | - |
| 1777647079 | 31.11° C | 38% | 998 hPa | - | - | - | - |
| 1777646475 | 31.11° C | 40% | 998 hPa | - | - | - | - |
| 1777645871 | 31.67° C | 41% | 998 hPa | - | - | - | - |
| 1777645267 | 31.67° C | 42% | 999 hPa | - | - | - | - |
| 1777644663 | 31.67° C | 42% | 999 hPa | - | - | - | - |
| 1777644059 | 31.67° C | 41% | 999 hPa | - | - | - | - |
| 1777643455 | 31.11° C | 41% | 999 hPa | - | - | - | - |
| 1777642851 | 31.11° C | 41% | 999 hPa | - | - | - | - |
| 1777642247 | 30.56° C | 41% | 999 hPa | - | - | - | - |
| 1777641643 | 30° C | 41% | 999 hPa | - | - | - | - |
* Rain since midnight (hover to see other rain measurements)
** Current wind speed in m/s (hover to see current wind gust speed)